| time (UTC) | temp F | wind direction | speed MPH | gust MPH | rain 1hr in | rain 24hr in | rain mn in | humidity % | barometer mb |
| 20260906190043 | 63 | 304 | 4.0 | 5.0 | 0.00 | 0.00 | 0.00 | 54 | 1027.7 |
| 20260906185543 | 63 | 345 | 0.0 | 2.0 | 0.00 | 0.00 | 0.00 | 54 | 1027.6 |
| 20260906185043 | 63 | 345 | 0.0 | 4.0 | 0.00 | 0.00 | 0.00 | 54 | 1027.7 |
| 20260906184546 | 63 | 324 | 2.0 | 4.0 | 0.00 | 0.00 | 0.00 | 53 | 1027.6 |
| 20260906184043 | 63 | 343 | 1.0 | 5.0 | 0.00 | 0.00 | 0.00 | 53 | 1027.6 |
| 20260906183548 | 63 | 330 | 2.0 | 4.0 | 0.00 | 0.00 | 0.00 | 53 | 1027.5 |
| 20260906183043 | 63 | 350 | 2.0 | 5.0 | 0.00 | 0.00 | 0.00 | 53 | 1027.5 |
| 20260906182546 | 63 | 320 | 0.0 | 3.0 | 0.00 | 0.00 | 0.00 | 52 | 1027.4 |
| 20260906182046 | 63 | 305 | 2.0 | 6.0 | 0.00 | 0.00 | 0.00 | 52 | 1027.4 |
| 20260906181543 | 63 | 337 | 1.0 | 6.0 | 0.00 | 0.00 | 0.00 | 52 | 1027.4 |
| 20260906181052 | 64 | 335 | 2.0 | 7.0 | 0.00 | 0.00 | 0.00 | 51 | 1027.4 |
| 20260906180544 | 64 | 268 | 0.0 | 2.0 | 0.00 | 0.00 | 0.00 | 51 | 1027.4 |
| 20260906180049 | 64 | 15 | 0.0 | 7.0 | 0.00 | 0.00 | 0.00 | 50 | 1027.2 |
| 20260906175543 | 64 | 309 | 5.0 | 6.0 | 0.00 | 0.00 | 0.00 | 50 | 1027.2 |
| 20260906175043 | 65 | 314 | 3.0 | 6.0 | 0.00 | 0.00 | 0.00 | 49 | 1027.2 |
| 20260906174543 | 65 | 320 | 5.0 | 6.0 | 0.00 | 0.00 | 0.00 | 49 | 1027.1 |
| 20260906174043 | 65 | 301 | 1.0 | 7.0 | 0.00 | 0.00 | 0.00 | 48 | 1027.2 |
| 20260906173544 | 65 | 313 | 4.0 | 5.0 | 0.00 | 0.00 | 0.00 | 48 | 1027.1 |
| 20260906173043 | 65 | 325 | 4.0 | 5.0 | 0.00 | 0.00 | 0.00 | 48 | 1027.2 |
| 20260906172543 | 65 | 310 | 3.0 | 4.0 | 0.00 | 0.00 | 0.00 | 47 | 1027.1 |
| 20260906172043 | 66 | 304 | 2.0 | 5.0 | 0.00 | 0.00 | 0.00 | 47 | 1027.1 |
| 20260906171543 | 66 | 310 | 4.0 | 4.0 | 0.00 | 0.00 | 0.00 | 47 | 1027.2 |
| 20260906171046 | 66 | 293 | 2.0 | 4.0 | 0.00 | 0.00 | 0.00 | 47 | 1027.1 |
| 20260906170544 | 66 | 272 | 2.0 | 5.0 | 0.00 | 0.00 | 0.00 | 47 | 1027.1 |
| 20260906170046 | 66 | 282 | 4.0 | 5.0 | 0.00 | 0.00 | 0.00 | 46 | 1027.1 |
| 20260906165543 | 66 | 300 | 0.0 | 4.0 | 0.00 | 0.00 | 0.00 | 47 | 1027.2 |
| 20260906165043 | 66 | 306 | 2.0 | 7.0 | 0.00 | 0.00 | 0.00 | 46 | 1027.2 |
| 20260906164543 | 67 | 310 | 3.0 | 5.0 | 0.00 | 0.00 | 0.00 | 46 | 1027.2 |
| 20260906164043 | 67 | 297 | 4.0 | 7.0 | 0.00 | 0.00 | 0.00 | 46 | 1027.1 |
| 20260906163544 | 67 | 317 | 3.0 | 6.0 | 0.00 | 0.00 | 0.00 | 46 | 1027.0 |
| 20260906163046 | 67 | 295 | 3.0 | 6.0 | 0.00 | 0.00 | 0.00 | 46 | 1027.1 |
| 20260906162543 | 67 | 277 | 3.0 | 7.0 | 0.00 | 0.00 | 0.00 | 46 | 1027.0 |
| 20260906162052 | 68 | 181 | 2.0 | 7.0 | 0.00 | 0.00 | 0.00 | 45 | 1027.0 |
| 20260906161543 | 68 | 282 | 0.0 | 5.0 | 0.00 | 0.00 | 0.00 | 45 | 1027.0 |
| 20260906161049 | 68 | 163 | 0.0 | 4.0 | 0.00 | 0.00 | 0.00 | 45 | 1027.0 |
| 20260906160548 | 68 | 320 | 3.0 | 5.0 | 0.00 | 0.00 | 0.00 | 44 | 1027.0 |
| 20260906160046 | 68 | 265 | 0.0 | 7.0 | 0.00 | 0.00 | 0.00 | 44 | 1027.1 |
| 20260906155543 | 68 | 324 | 4.0 | 6.0 | 0.00 | 0.00 | 0.00 | 43 | 1027.2 |
| 20260906155046 | 69 | 243 | 3.0 | 5.0 | 0.00 | 0.00 | 0.00 | 43 | 1027.1 |
| 20260906154549 | 68 | 323 | 1.0 | 5.0 | 0.00 | 0.00 | 0.00 | 44 | 1027.1 |
| 20260906154043 | 68 | 266 | 4.0 | 7.0 | 0.00 | 0.00 | 0.00 | 44 | 1027.2 |
| 20260906153544 | 68 | 246 | 6.0 | 7.0 | 0.00 | 0.00 | 0.00 | 45 | 1027.1 |
| 20260906153049 | 68 | 309 | 7.0 | 8.0 | 0.00 | 0.00 | 0.00 | 44 | 1027.1 |
| 20260906152543 | 68 | 287 | 3.0 | 8.0 | 0.00 | 0.00 | 0.00 | 45 | 1027.1 |
| 20260906152043 | 68 | 277 | 6.0 | 9.0 | 0.00 | 0.00 | 0.00 | 44 | 1027.1 |
| 20260906151546 | 68 | 282 | 7.0 | 10.0 | 0.00 | 0.00 | 0.00 | 44 | 1027.1 |
| 20260906151043 | 68 | 251 | 6.0 | 8.0 | 0.00 | 0.00 | 0.00 | 45 | 1027.1 |
| 20260906150544 | 68 | 189 | 3.0 | 8.0 | 0.00 | 0.00 | 0.00 | 45 | 1027.1 |
| 20260906150049 | 68 | 320 | 8.0 | 9.0 | 0.00 | 0.00 | 0.00 | 44 | 1027.1 |
| 20260906145546 | 69 | 282 | 4.0 | 7.0 | 0.00 | 0.00 | 0.00 | 44 | 1027.0 |
| 20260906145043 | 69 | 296 | 4.0 | 4.0 | 0.00 | 0.00 | 0.00 | 43 | 1027.1 |
| 20260906144543 | 69 | 203 | 0.0 | 7.0 | 0.00 | 0.00 | 0.00 | 44 | 1027.2 |
| 20260906144043 | 68 | 231 | 3.0 | 9.0 | 0.00 | 0.00 | 0.00 | 45 | 1027.2 |
| 20260906143548 | 68 | 241 | 3.0 | 8.0 | 0.00 | 0.00 | 0.00 | 45 | 1027.2 |
| 20260906143043 | 68 | 291 | 4.0 | 6.0 | 0.00 | 0.00 | 0.00 | 45 | 1027.2 |
| 20260906142543 | 68 | 199 | 3.0 | 8.0 | 0.00 | 0.00 | 0.00 | 45 | 1027.2 |
| 20260906142049 | 68 | 247 | 6.0 | 8.0 | 0.00 | 0.00 | 0.00 | 46 | 1027.1 |
| 20260906141552 | 68 | 302 | 7.0 | 10.0 | 0.00 | 0.00 | 0.00 | 45 | 1027.1 |
| 20260906141043 | 68 | 302 | 6.0 | 7.0 | 0.00 | 0.00 | 0.00 | 46 | 1027.2 |
| 20260906140544 | 68 | 144 | 0.0 | 6.0 | 0.00 | 0.00 | 0.00 | 45 | 1027.2 |
| 20260906140046 | 68 | 170 | 6.0 | 8.0 | 0.00 | 0.00 | 0.00 | 45 | 1027.1 |
| 20260906135543 | 68 | 231 | 5.0 | 8.0 | 0.00 | 0.00 | 0.00 | 45 | 1027.2 |
| 20260906135046 | 68 | 192 | 5.0 | 10.0 | 0.00 | 0.00 | 0.00 | 46 | 1027.2 |
| 20260906134543 | 68 | 287 | 4.0 | 10.0 | 0.00 | 0.00 | 0.00 | 45 | 1027.1 |
| 20260906134046 | 68 | 226 | 8.0 | 8.0 | 0.00 | 0.00 | 0.00 | 46 | 1027.1 |
| 20260906133547 | 68 | 309 | 2.0 | 8.0 | 0.00 | 0.00 | 0.00 | 45 | 1027.1 |
| 20260906133043 | 68 | 245 | 2.0 | 5.0 | 0.00 | 0.00 | 0.00 | 46 | 1027.1 |
| 20260906132543 | 68 | 291 | 4.0 | 8.0 | 0.00 | 0.00 | 0.00 | 46 | 1027.1 |
| 20260906132043 | 68 | 253 | 5.0 | 7.0 | 0.00 | 0.00 | 0.00 | 46 | 1027.1 |
| 20260906131549 | 67 | 295 | 5.0 | 12.0 | 0.00 | 0.00 | 0.00 | 46 | 1027.2 |
| 20260906131046 | 68 | 269 | 6.0 | 10.0 | 0.00 | 0.00 | 0.00 | 46 | 1027.2 |
| 20260906130544 | 68 | 226 | 3.0 | 8.0 | 0.00 | 0.00 | 0.00 | 47 | 1027.1 |
| 20260906130046 | 67 | 200 | 4.0 | 6.0 | 0.00 | 0.00 | 0.00 | 48 | 1027.2 |
| 20260906125549 | 67 | 176 | 5.0 | 13.0 | 0.00 | 0.00 | 0.00 | 48 | 1027.2 |
| 20260906125049 | 67 | 170 | 2.0 | 8.0 | 0.00 | 0.00 | 0.00 | 48 | 1027.2 |
| 20260906124543 | 66 | 172 | 2.0 | 9.0 | 0.00 | 0.00 | 0.00 | 50 | 1027.2 |
| 20260906124043 | 65 | 262 | 5.0 | 11.0 | 0.00 | 0.00 | 0.00 | 49 | 1027.2 |
| 20260906123553 | 65 | 193 | 7.0 | 12.0 | 0.00 | 0.00 | 0.00 | 49 | 1027.2 |
| 20260906123046 | 66 | 305 | 3.0 | 10.0 | 0.00 | 0.00 | 0.00 | 49 | 1027.3 |
| 20260906122549 | 66 | 247 | 6.0 | 9.0 | 0.00 | 0.00 | 0.00 | 49 | 1027.5 |
| 20260906122043 | 65 | 210 | 2.0 | 9.0 | 0.00 | 0.00 | 0.00 | 49 | 1027.5 |
| 20260906121543 | 65 | 245 | 2.0 | 10.0 | 0.00 | 0.00 | 0.00 | 50 | 1027.4 |
| 20260906121052 | 65 | 189 | 6.0 | 12.0 | 0.00 | 0.00 | 0.00 | 50 | 1027.3 |
| 20260906120550 | 65 | 207 | 4.0 | 9.0 | 0.00 | 0.00 | 0.00 | 50 | 1027.5 |
| 20260906120046 | 64 | 325 | 4.0 | 12.0 | 0.00 | 0.00 | 0.00 | 51 | 1027.4 |
| 20260906115546 | 64 | 187 | 6.0 | 13.0 | 0.00 | 0.00 | 0.00 | 51 | 1027.5 |
| 20260906115052 | 64 | 222 | 13.0 | 13.0 | 0.00 | 0.00 | 0.00 | 50 | 1027.5 |
| 20260906114546 | 64 | 216 | 4.0 | 15.0 | 0.00 | 0.00 | 0.00 | 49 | 1027.5 |
| 20260906114043 | 65 | 145 | 3.0 | 10.0 | 0.00 | 0.00 | 0.00 | 51 | 1027.5 |
| 20260906113547 | 64 | 235 | 8.0 | 10.0 | 0.00 | 0.00 | 0.00 | 51 | 1027.7 |
| 20260906113043 | 64 | 173 | 6.0 | 10.0 | 0.00 | 0.00 | 0.00 | 52 | 1027.7 |
| 20260906112543 | 64 | 211 | 7.0 | 12.0 | 0.00 | 0.00 | 0.00 | 51 | 1027.7 |
| 20260906112043 | 64 | 167 | 4.0 | 9.0 | 0.00 | 0.00 | 0.00 | 52 | 1027.7 |
| 20260906111546 | 64 | 338 | 4.0 | 10.0 | 0.00 | 0.00 | 0.00 | 52 | 1027.8 |
| 20260906111046 | 65 | 262 | 3.0 | 7.0 | 0.00 | 0.00 | 0.00 | 51 | 1027.7 |
| 20260906110544 | 64 | 273 | 3.0 | 7.0 | 0.00 | 0.00 | 0.00 | 53 | 1027.8 |
| 20260906110043 | 63 | 282 | 4.0 | 9.0 | 0.00 | 0.00 | 0.00 | 53 | 1027.8 |
| 20260906105549 | 63 | 191 | 3.0 | 7.0 | 0.00 | 0.00 | 0.00 | 54 | 1027.8 |
| 20260906105046 | 63 | 243 | 3.0 | 9.0 | 0.00 | 0.00 | 0.00 | 55 | 1027.9 |
| 20260906104543 | 63 | 216 | 8.0 | 11.0 | 0.00 | 0.00 | 0.00 | 54 | 1028.0 |
| 20260906104043 | 63 | 282 | 8.0 | 10.0 | 0.00 | 0.00 | 0.00 | 55 | 1028.1 |
| 20260906103548 | 63 | 235 | 4.0 | 9.0 | 0.00 | 0.00 | 0.00 | 53 | 1028.1 |
| 20260906103046 | 64 | 245 | 6.0 | 11.0 | 0.00 | 0.00 | 0.00 | 52 | 1028.1 |
| 20260906102546 | 64 | 249 | 3.0 | 10.0 | 0.00 | 0.00 | 0.00 | 53 | 1028.1 |
| 20260906102043 | 64 | 277 | 1.0 | 9.0 | 0.00 | 0.00 | 0.00 | 53 | 1028.1 |
| 20260906101549 | 64 | 333 | 6.0 | 10.0 | 0.00 | 0.00 | 0.00 | 53 | 1028.2 |
| 20260906101046 | 63 | 277 | 3.0 | 11.0 | 0.00 | 0.00 | 0.00 | 54 | 1028.2 |
| 20260906100547 | 62 | 243 | 2.0 | 10.0 | 0.00 | 0.00 | 0.00 | 53 | 1028.2 |
| 20260906100046 | 62 | 248 | 5.0 | 10.0 | 0.00 | 0.00 | 0.00 | 54 | 1028.1 |
| 20260906095546 | 62 | 222 | 7.0 | 10.0 | 0.00 | 0.00 | 0.00 | 55 | 1028.2 |
| 20260906095049 | 63 | 251 | 7.0 | 9.0 | 0.00 | 0.00 | 0.00 | 55 | 1028.2 |
| 20260906094546 | 62 | 277 | 1.0 | 11.0 | 0.00 | 0.00 | 0.00 | 55 | 1028.1 |
| 20260906094052 | 62 | 254 | 4.0 | 10.0 | 0.00 | 0.00 | 0.00 | 56 | 1028.2 |
| 20260906093550 | 61 | 168 | 4.0 | 11.0 | 0.00 | 0.00 | 0.00 | 57 | 1028.2 |
| 20260906093043 | 61 | 192 | 11.0 | 11.0 | 0.00 | 0.00 | 0.00 | 57 | 1028.2 |
| 20260906092543 | 61 | 201 | 4.0 | 11.0 | 0.00 | 0.00 | 0.00 | 57 | 1028.2 |
| 20260906092043 | 61 | 147 | 5.0 | 11.0 | 0.00 | 0.00 | 0.00 | 58 | 1028.2 |
| 20260906091543 | 62 | 212 | 3.0 | 8.0 | 0.00 | 0.00 | 0.00 | 57 | 1028.2 |
| 20260906091046 | 61 | 304 | 3.0 | 9.0 | 0.00 | 0.00 | 0.00 | 59 | 1028.1 |
| 20260906090544 | 61 | 177 | 6.0 | 9.0 | 0.00 | 0.00 | 0.00 | 59 | 1028.2 |
| 20260906090043 | 60 | 218 | 5.0 | 13.0 | 0.00 | 0.00 | 0.00 | 59 | 1028.2 |
| 20260906085543 | 61 | 282 | 8.0 | 10.0 | 0.00 | 0.00 | 0.00 | 59 | 1028.1 |
| 20260906085046 | 61 | 227 | 7.0 | 14.0 | 0.00 | 0.00 | 0.00 | 58 | 1028.2 |
| 20260906084546 | 61 | 178 | 2.0 | 8.0 | 0.00 | 0.00 | 0.00 | 59 | 1028.2 |
| 20260906084049 | 60 | 226 | 5.0 | 11.0 | 0.00 | 0.00 | 0.00 | 60 | 1028.2 |
| 20260906083544 | 60 | 272 | 7.0 | 10.0 | 0.00 | 0.00 | 0.00 | 60 | 1028.2 |
| 20260906083043 | 60 | 233 | 7.0 | 10.0 | 0.00 | 0.00 | 0.00 | 61 | 1028.2 |
| 20260906082549 | 60 | 177 | 2.0 | 8.0 | 0.00 | 0.00 | 0.00 | 63 | 1028.1 |
| 20260906082046 | 60 | 193 | 2.0 | 11.0 | 0.00 | 0.00 | 0.00 | 61 | 1028.1 |
| 20260906081543 | 61 | 176 | 5.0 | 10.0 | 0.00 | 0.00 | 0.00 | 62 | 1027.9 |
| 20260906081043 | 60 | 233 | 1.0 | 7.0 | 0.00 | 0.00 | 0.00 | 63 | 1027.9 |
| 20260906080547 | 60 | 216 | 6.0 | 11.0 | 0.00 | 0.00 | 0.00 | 64 | 1027.8 |
| 20260906080043 | 59 | 182 | 7.0 | 12.0 | 0.00 | 0.00 | 0.00 | 65 | 1027.8 |
| 20260906075546 | 59 | 163 | 7.0 | 11.0 | 0.00 | 0.00 | 0.00 | 64 | 1027.7 |
| 20260906075049 | 60 | 227 | 5.0 | 8.0 | 0.00 | 0.00 | 0.00 | 65 | 1027.7 |
| 20260906074552 | 59 | 277 | 4.0 | 8.0 | 0.00 | 0.00 | 0.00 | 67 | 1027.6 |
| 20260906074043 | 59 | 220 | 2.0 | 7.0 | 0.00 | 0.00 | 0.00 | 67 | 1027.6 |
| 20260906073544 | 60 | 296 | 4.0 | 7.0 | 0.00 | 0.00 | 0.00 | 67 | 1027.6 |
| 20260906073049 | 59 | 241 | 1.0 | 9.0 | 0.00 | 0.00 | 0.00 | 69 | 1027.5 |
| 20260906072552 | 59 | 291 | 6.0 | 11.0 | 0.00 | 0.00 | 0.00 | 70 | 1027.5 |
| 20260906072043 | 58 | 244 | 5.0 | 12.0 | 0.00 | 0.00 | 0.00 | 70 | 1027.3 |
| 20260906071543 | 58 | 245 | 6.0 | 11.0 | 0.00 | 0.00 | 0.00 | 70 | 1027.3 |
| 20260906071043 | 58 | 219 | 9.0 | 13.0 | 0.00 | 0.00 | 0.00 | 70 | 1027.3 |
| 20260906070544 | 58 | 230 | 7.0 | 13.0 | 0.00 | 0.00 | 0.00 | 70 | 1027.3 |
| 20260906070043 | 59 | 181 | 9.0 | 10.0 | 0.00 | 0.00 | 0.00 | 69 | 1027.1 |
| 20260906065552 | 58 | 42 | 2.0 | 8.0 | 0.00 | 0.00 | 0.00 | 71 | 1027.0 |
| 20260906065046 | 58 | 186 | 7.0 | 9.0 | 0.00 | 0.00 | 0.00 | 71 | 1027.0 |
| 20260906064546 | 58 | 180 | 2.0 | 11.0 | 0.00 | 0.00 | 0.00 | 71 | 1027.0 |
| 20260906064046 | 58 | 179 | 6.0 | 10.0 | 0.00 | 0.00 | 0.00 | 71 | 1027.1 |
| 20260906063547 | 58 | 190 | 2.0 | 10.0 | 0.00 | 0.00 | 0.00 | 71 | 1026.9 |
| 20260906063046 | 58 | 206 | 5.0 | 9.0 | 0.00 | 0.00 | 0.00 | 71 | 1026.9 |
| 20260906062546 | 58 | 210 | 3.0 | 10.0 | 0.00 | 0.00 | 0.00 | 72 | 1027.0 |
| 20260906062046 | 58 | 244 | 3.0 | 11.0 | 0.00 | 0.00 | 0.00 | 72 | 1027.0 |
| 20260906061549 | 57 | 219 | 4.0 | 8.0 | 0.00 | 0.00 | 0.00 | 72 | 1027.0 |
| 20260906061046 | 57 | 208 | 4.0 | 9.0 | 0.00 | 0.00 | 0.00 | 73 | 1026.9 |
| 20260906060547 | 57 | 203 | 5.0 | 10.0 | 0.00 | 0.00 | 0.00 | 73 | 1026.8 |
| 20260906060046 | 57 | 258 | 3.0 | 8.0 | 0.00 | 0.00 | 0.00 | 73 | 1026.7 |
| 20260906055546 | 57 | 209 | 0.0 | 7.0 | 0.00 | 0.00 | 0.00 | 74 | 1026.7 |
| 20260906055046 | 56 | 203 | 5.0 | 7.0 | 0.00 | 0.00 | 0.00 | 74 | 1026.6 |
| 20260906054543 | 56 | 228 | 4.0 | 9.0 | 0.00 | 0.00 | 0.00 | 74 | 1026.6 |
| 20260906054046 | 56 | 224 | 6.0 | 8.0 | 0.00 | 0.00 | 0.00 | 76 | 1026.5 |
| 20260906053547 | 56 | 187 | 7.0 | 9.0 | 0.00 | 0.00 | 0.00 | 74 | 1026.5 |
| 20260906053043 | 56 | 204 | 5.0 | 8.0 | 0.00 | 0.00 | 0.00 | 74 | 1026.5 |
| 20260906052546 | 56 | 190 | 7.0 | 9.0 | 0.00 | 0.00 | 0.00 | 74 | 1026.4 |
| 20260906052043 | 56 | 182 | 5.0 | 9.0 | 0.00 | 0.00 | 0.00 | 75 | 1026.3 |
| 20260906051546 | 56 | 232 | 6.0 | 9.0 | 0.00 | 0.00 | 0.00 | 75 | 1026.3 |
| 20260906051049 | 56 | 199 | 6.0 | 10.0 | 0.00 | 0.00 | 0.00 | 75 | 1026.3 |
| 20260906050544 | 56 | 208 | 8.0 | 11.0 | 0.00 | 0.00 | 0.00 | 76 | 1026.3 |
| 20260906050046 | 55 | 189 | 5.0 | 8.0 | 0.00 | 0.00 | 0.00 | 76 | 1026.3 |
| 20260906045543 | 55 | 191 | 3.0 | 7.0 | 0.00 | 0.00 | 0.00 | 76 | 1026.2 |
| 20260906045043 | 55 | 185 | 3.0 | 6.0 | 0.00 | 0.00 | 0.00 | 76 | 1026.2 |
| 20260906044549 | 55 | 195 | 1.0 | 7.0 | 0.00 | 0.00 | 0.00 | 76 | 1026.2 |
| 20260906044046 | 56 | 177 | 5.0 | 9.0 | 0.00 | 0.00 | 0.00 | 76 | 1026.2 |
| 20260906043544 | 55 | 216 | 4.0 | 8.0 | 0.00 | 0.00 | 0.00 | 76 | 1026.2 |
| 20260906043043 | 56 | 144 | 3.0 | 8.0 | 0.00 | 0.00 | 0.00 | 76 | 1026.2 |
| 20260906042543 | 56 | 206 | 7.0 | 9.0 | 0.00 | 0.00 | 0.00 | 76 | 1026.2 |
| 20260906042046 | 56 | 209 | 4.0 | 8.0 | 0.00 | 0.00 | 0.00 | 75 | 1026.1 |
| 20260906041549 | 56 | 213 | 1.0 | 7.0 | 0.00 | 0.00 | 0.00 | 75 | 1026.1 |
| 20260906041046 | 56 | 200 | 3.0 | 7.0 | 0.00 | 0.00 | 0.00 | 75 | 1026.1 |
| 20260906040544 | 56 | 231 | 5.0 | 9.0 | 0.00 | 0.00 | 0.00 | 75 | 1026.0 |
| 20260906040049 | 56 | 190 | 5.0 | 8.0 | 0.00 | 0.00 | 0.00 | 75 | 1026.0 |
| 20260906035546 | 56 | 171 | 6.0 | 9.0 | 0.00 | 0.00 | 0.00 | 75 | 1025.9 |
| 20260906035043 | 56 | 218 | 6.0 | 8.0 | 0.00 | 0.01 | 0.00 | 74 | 1025.9 |
| 20260906034543 | 56 | 204 | 5.0 | 10.0 | 0.00 | 0.02 | 0.00 | 74 | 1025.8 |
| 20260906034043 | 56 | 205 | 6.0 | 11.0 | 0.00 | 0.02 | 0.00 | 74 | 1025.8 |
| 20260906033547 | 57 | 226 | 5.0 | 9.0 | 0.00 | 0.03 | 0.00 | 74 | 1025.8 |
| 20260906033046 | 57 | 214 | 7.0 | 10.0 | 0.00 | 0.03 | 0.00 | 74 | 1025.8 |
| 20260906032543 | 57 | 221 | 3.0 | 11.0 | 0.00 | 0.05 | 0.00 | 73 | 1025.7 |
| 20260906032043 | 57 | 230 | 7.0 | 12.0 | 0.00 | 0.07 | 0.00 | 73 | 1025.8 |
| 20260906031543 | 57 | 208 | 4.0 | 11.0 | 0.00 | 0.07 | 0.00 | 73 | 1025.7 |
| 20260906031043 | 57 | 204 | 9.0 | 11.0 | 0.00 | 0.07 | 0.00 | 73 | 1025.6 |
| 20260906030547 | 57 | 197 | 8.0 | 10.0 | 0.00 | 0.07 | 0.00 | 73 | 1025.6 |
| 20260906030043 | 57 | 170 | 5.0 | 10.0 | 0.00 | 0.08 | 0.00 | 73 | 1025.7 |
| 20260906025546 | 57 | 242 | 3.0 | 8.0 | 0.00 | 0.08 | 0.00 | 73 | 1025.6 |
| 20260906025046 | 57 | 216 | 4.0 | 8.0 | 0.00 | 0.08 | 0.00 | 72 | 1025.5 |
| 20260906024543 | 57 | 213 | 8.0 | 8.0 | 0.00 | 0.08 | 0.00 | 72 | 1025.4 |
| 20260906024043 | 58 | 166 | 5.0 | 7.0 | 0.00 | 0.08 | 0.00 | 72 | 1025.5 |
| 20260906023547 | 58 | 216 | 3.0 | 9.0 | 0.00 | 0.08 | 0.00 | 72 | 1025.5 |
| 20260906023046 | 58 | 166 | 5.0 | 9.0 | 0.00 | 0.08 | 0.00 | 72 | 1025.5 |
| 20260906022543 | 58 | 203 | 5.0 | 9.0 | 0.00 | 0.08 | 0.00 | 73 | 1025.5 |
| 20260906022043 | 58 | 182 | 7.0 | 9.0 | 0.00 | 0.08 | 0.00 | 73 | 1025.5 |
| 20260906021546 | 58 | 194 | 5.0 | 10.0 | 0.00 | 0.08 | 0.00 | 73 | 1025.4 |
| 20260906021049 | 58 | 203 | 5.0 | 7.0 | 0.00 | 0.08 | 0.00 | 73 | 1025.4 |
| 20260906020547 | 58 | 222 | 6.0 | 7.0 | 0.00 | 0.08 | 0.00 | 73 | 1025.4 |
| 20260906020046 | 58 | 212 | 5.0 | 6.0 | 0.00 | 0.08 | 0.00 | 73 | 1025.3 |
| 20260906015552 | 58 | 243 | 4.0 | 7.0 | 0.00 | 0.08 | 0.00 | 73 | 1025.4 |
| 20260906015043 | 58 | 199 | 4.0 | 7.0 | 0.00 | 0.08 | 0.00 | 72 | 1025.3 |
| 20260906014546 | 58 | 212 | 5.0 | 7.0 | 0.00 | 0.08 | 0.00 | 72 | 1025.2 |
| 20260906014043 | 58 | 224 | 3.0 | 6.0 | 0.00 | 0.08 | 0.00 | 72 | 1025.2 |
| 20260906013544 | 58 | 210 | 3.0 | 7.0 | 0.00 | 0.08 | 0.00 | 72 | 1025.2 |
| 20260906013043 | 58 | 211 | 4.0 | 7.0 | 0.00 | 0.09 | 0.00 | 72 | 1025.2 |
| 20260906012543 | 58 | 212 | 4.0 | 7.0 | 0.00 | 0.09 | 0.00 | 72 | 1025.2 |
| 20260906012043 | 58 | 167 | 3.0 | 6.0 | 0.00 | 0.09 | 0.00 | 71 | 1025.3 |
| 20260906011543 | 58 | 193 | 3.0 | 5.0 | 0.00 | 0.09 | 0.00 | 71 | 1025.2 |
| 20260906011046 | 58 | 172 | 4.0 | 6.0 | 0.00 | 0.09 | 0.00 | 71 | 1025.2 |
| 20260906010544 | 58 | 201 | 4.0 | 7.0 | 0.00 | 0.09 | 0.00 | 71 | 1025.2 |
| 20260906010046 | 58 | 204 | 3.0 | 7.0 | 0.00 | 0.09 | 0.00 | 70 | 1025.3 |
| 20260906005546 | 58 | 218 | 5.0 | 7.0 | 0.00 | 0.09 | 0.00 | 70 | 1025.2 |
| 20260906005049 | 59 | 187 | 3.0 | 9.0 | 0.00 | 0.09 | 0.00 | 70 | 1025.2 |
| 20260906004543 | 59 | 224 | 3.0 | 9.0 | 0.00 | 0.09 | 0.00 | 69 | 1025.2 |
| 20260906004046 | 59 | 223 | 5.0 | 8.0 | 0.00 | 0.09 | 0.00 | 69 | 1025.2 |
| 20260906003553 | 59 | 207 | 5.0 | 9.0 | 0.00 | 0.09 | 0.00 | 69 | 1025.3 |
| 20260906003046 | 59 | 202 | 3.0 | 9.0 | 0.00 | 0.09 | 0.00 | 69 | 1025.3 |
| 20260906002546 | 59 | 205 | 3.0 | 10.0 | 0.00 | 0.09 | 0.00 | 68 | 1025.2 |
| 20260906002052 | 59 | 135 | 4.0 | 8.0 | 0.00 | 0.09 | 0.00 | 68 | 1025.2 |
| 20260906001546 | 59 | 158 | 3.0 | 9.0 | 0.00 | 0.09 | 0.00 | 68 | 1025.1 |
| 20260906001043 | 59 | 179 | 8.0 | 9.0 | 0.00 | 0.09 | 0.00 | 67 | 1025.1 |
| 20260906000544 | 59 | 212 | 8.0 | 11.0 | 0.00 | 0.09 | 0.00 | 67 | 1025.0 |
| 20260906000043 | 60 | 195 | 6.0 | 10.0 | 0.00 | 0.09 | 0.00 | 67 | 1024.9 |
| 20260905235543 | 60 | 183 | 2.0 | 8.0 | 0.00 | 0.09 | 0.00 | 67 | 1024.9 |
| 20260905235052 | 60 | 179 | 4.0 | 8.0 | 0.00 | 0.09 | 0.00 | 67 | 1024.9 |
| 20260905234546 | 60 | 234 | 4.0 | 11.0 | 0.00 | 0.09 | 0.00 | 67 | 1024.8 |
| 20260905234043 | 60 | 212 | 7.0 | 10.0 | 0.00 | 0.09 | 0.00 | 66 | 1024.7 |
| 20260905233544 | 60 | 243 | 9.0 | 11.0 | 0.00 | 0.09 | 0.00 | 66 | 1024.7 |
| 20260905233043 | 60 | 214 | 7.0 | 10.0 | 0.00 | 0.09 | 0.00 | 65 | 1024.8 |
| 20260905232543 | 60 | 241 | 6.0 | 8.0 | 0.00 | 0.09 | 0.00 | 65 | 1024.8 |
| 20260905232043 | 60 | 201 | 6.0 | 9.0 | 0.00 | 0.09 | 0.00 | 65 | 1024.7 |
| 20260905231546 | 60 | 223 | 3.0 | 12.0 | 0.00 | 0.09 | 0.00 | 64 | 1024.7 |
| 20260905231049 | 61 | 217 | 4.0 | 13.0 | 0.00 | 0.09 | 0.00 | 64 | 1024.6 |
| 20260905230547 | 61 | 210 | 8.0 | 10.0 | 0.00 | 0.09 | 0.00 | 64 | 1024.6 |
| 20260905230043 | 61 | 191 | 8.0 | 12.0 | 0.00 | 0.09 | 0.00 | 63 | 1024.7 |
| 20260905225546 | 61 | 208 | 5.0 | 9.0 | 0.00 | 0.09 | 0.00 | 63 | 1024.7 |
| 20260905225043 | 61 | 178 | 8.0 | 9.0 | 0.00 | 0.09 | 0.00 | 63 | 1024.6 |
| 20260905224552 | 61 | 191 | 7.0 | 9.0 | 0.00 | 0.09 | 0.00 | 63 | 1024.7 |
| 20260905224043 | 61 | 231 | 7.0 | 8.0 | 0.00 | 0.09 | 0.00 | 63 | 1024.5 |
| 20260905223544 | 61 | 189 | 4.0 | 8.0 | 0.00 | 0.09 | 0.00 | 62 | 1024.6 |
| 20260905223043 | 61 | 211 | 3.0 | 8.0 | 0.00 | 0.09 | 0.00 | 62 | 1024.6 |
| 20260905222552 | 61 | 183 | 2.0 | 8.0 | 0.00 | 0.09 | 0.00 | 61 | 1024.5 |
| 20260905222043 | 61 | 183 | 7.0 | 7.0 | 0.00 | 0.09 | 0.00 | 61 | 1024.5 |
| 20260905221546 | 62 | 175 | 4.0 | 9.0 | 0.00 | 0.09 | 0.00 | 60 | 1024.4 |
| 20260905221043 | 62 | 203 | 7.0 | 10.0 | 0.00 | 0.09 | 0.00 | 59 | 1024.4 |
| 20260905220544 | 62 | 216 | 8.0 | 12.0 | 0.00 | 0.09 | 0.00 | 59 | 1024.5 |
| 20260905220046 | 62 | 200 | 5.0 | 10.0 | 0.00 | 0.09 | 0.00 | 59 | 1024.4 |
| 20260905215543 | 62 | 236 | 5.0 | 9.0 | 0.00 | 0.09 | 0.00 | 59 | 1024.4 |
| 20260905215043 | 63 | 174 | 5.0 | 13.0 | 0.00 | 0.09 | 0.00 | 58 | 1024.3 |
| 20260905214549 | 63 | 223 | 6.0 | 14.0 | 0.00 | 0.09 | 0.00 | 58 | 1024.2 |
| 20260905214043 | 63 | 195 | 13.0 | 16.0 | 0.00 | 0.09 | 0.00 | 58 | 1024.2 |
| 20260905213547 | 63 | 199 | 8.0 | 16.0 | 0.00 | 0.09 | 0.00 | 57 | 1024.2 |
| 20260905213046 | 63 | 193 | 10.0 | 14.0 | 0.00 | 0.09 | 0.00 | 57 | 1024.1 |
| 20260905212546 | 63 | 187 | 9.0 | 12.0 | 0.00 | 0.09 | 0.00 | 57 | 1024.1 |
| 20260905212043 | 63 | 204 | 12.0 | 14.0 | 0.00 | 0.09 | 0.00 | 57 | 1024.0 |
| 20260905211543 | 63 | 183 | 4.0 | 13.0 | 0.00 | 0.09 | 0.00 | 57 | 1024.0 |
| 20260905211049 | 63 | 198 | 6.0 | 13.0 | 0.00 | 0.09 | 0.00 | 57 | 1024.0 |
| 20260905210553 | 63 | 206 | 7.0 | 13.0 | 0.00 | 0.09 | 0.00 | 56 | 1024.0 |
| 20260905210043 | 63 | 218 | 6.0 | 14.0 | 0.00 | 0.09 | 0.00 | 56 | 1023.9 |
| 20260905205549 | 63 | 203 | 11.0 | 12.0 | 0.00 | 0.09 | 0.00 | 56 | 1023.9 |
| 20260905205049 | 63 | 214 | 4.0 | 16.0 | 0.00 | 0.09 | 0.00 | 56 | 1023.8 |
| 20260905204546 | 63 | 208 | 9.0 | 15.0 | 0.00 | 0.09 | 0.00 | 56 | 1023.7 |
| 20260905204046 | 63 | 230 | 9.0 | 14.0 | 0.00 | 0.09 | 0.00 | 55 | 1023.7 |
| 20260905203544 | 63 | 143 | 6.0 | 11.0 | 0.00 | 0.09 | 0.00 | 55 | 1023.7 |
| 20260905203043 | 63 | 170 | 6.0 | 14.0 | 0.00 | 0.09 | 0.00 | 55 | 1023.5 |
| 20260905202546 | 63 | 235 | 13.0 | 14.0 | 0.00 | 0.09 | 0.00 | 55 | 1023.4 |
| 20260905202049 | 64 | 172 | 9.0 | 15.0 | 0.00 | 0.09 | 0.00 | 55 | 1023.4 |
| 20260905201543 | 64 | 185 | 8.0 | 15.0 | 0.00 | 0.09 | 0.00 | 55 | 1023.3 |
| 20260905201046 | 64 | 212 | 7.0 | 15.0 | 0.00 | 0.09 | 0.00 | 55 | 1023.3 |
| 20260905200544 | 64 | 196 | 4.0 | 16.0 | 0.00 | 0.09 | 0.00 | 55 | 1023.2 |
| 20260905200046 | 64 | 198 | 9.0 | 13.0 | 0.00 | 0.09 | 0.00 | 55 | 1023.2 |
| 20260905195543 | 64 | 204 | 9.0 | 14.0 | 0.00 | 0.09 | 0.00 | 55 | 1023.0 |
| 20260905195043 | 64 | 225 | 13.0 | 13.0 | 0.00 | 0.09 | 0.00 | 55 | 1023.0 |
| 20260905194552 | 64 | 203 | 9.0 | 15.0 | 0.00 | 0.09 | 0.00 | 55 | 1022.9 |
| 20260905194046 | 64 | 222 | 10.0 | 14.0 | 0.00 | 0.09 | 0.00 | 55 | 1022.8 |
| 20260905193547 | 64 | 192 | 9.0 | 15.0 | 0.00 | 0.09 | 0.00 | 54 | 1022.8 |
| 20260905193049 | 65 | 212 | 9.0 | 15.0 | 0.00 | 0.09 | 0.00 | 55 | 1022.7 |
| 20260905192543 | 64 | 210 | 8.0 | 14.0 | 0.00 | 0.09 | 0.00 | 55 | 1022.6 |
| 20260905192043 | 64 | 183 | 11.0 | 14.0 | 0.00 | 0.09 | 0.00 | 55 | 1022.7 |
| 20260905191546 | 65 | 195 | 10.0 | 13.0 | 0.00 | 0.09 | 0.00 | 55 | 1022.6 |
| 20260905191043 | 65 | 182 | 7.0 | 13.0 | 0.00 | 0.09 | 0.00 | 55 | 1022.7 |
| 20260905190544 | 65 | 182 | 10.0 | 13.0 | 0.00 | 0.09 | 0.00 | 55 | 1022.6 |